Regional Weather Roundup
Issued by NWS

Home | Current Version | Previous Version | Text Only | Print | Product List | Glossary On
Versions: 1 2 3 4 5 6 7 8 9 10 11 12 13 14 15 16 17 18 19 20 21 22 23 24 25 26 27 28 29 30 31 32 33 34 35 36 37 38 39 40 41 42 43 44 45 46 47 48 49 50
000
ASUS43 KBIS 180810
RWRND

NORTH DAKOTA REGIONAL WEATHER ROUNDUP
NATIONAL WEATHER SERVICE BISMARCK ND
200 AM CST MON DEC 18 2017

NOTE: "FAIR" INDICATES FEW OR NO CLOUDS BELOW 12,000 FEET WITH NO
SIGNIFICANT WEATHER AND/OR OBSTRUCTIONS TO VISIBILITY.


NDZ001>003-009>011-017-180900-
NORTHWEST NORTH DAKOTA

CITY           SKY/WX    TMP DP  RH WIND       PRES   REMARKS
WILLISTON      CLOUDY    37  23  56 W12       29.62F
MINOT          CLOUDY    35  24  64 SW10      29.59F
MINOT AFB      CLOUDY    33  24  68 SW12      29.57F
$$

NDZ018>021-031>035-040>046-180900-
SOUTHWEST NORTH DAKOTA

CITY           SKY/WX    TMP DP  RH WIND       PRES   REMARKS
BISMARCK       PTCLDY    32  23  69 SW5       29.70S
DICKINSON      CLOUDY    34  20  56 W16       29.65F
GARRISON         N/A     29  23  78 CALM      29.62F
HETTINGER ARPT CLOUDY    31  20  63 W15       29.73F
$$

NDZ004>008-012>016-024-026-027-054-180900-
NORTHEAST NORTH DAKOTA

CITY           SKY/WX    TMP DP  RH WIND       PRES   REMARKS
GRAND FORKS    CLOUDY    26  23  88 S12       29.65F WCI  16
GRND FRKS AFB  CLOUDY    31  25  78 W9        29.65F
DEVILS LAKE    CLOUDY    30  25  81 SW13      29.61F WCI  20
$$

NDZ022-023-025-028>030-036>039-047>053-180900-
SOUTHEAST NORTH DAKOTA

CITY           SKY/WX    TMP DP  RH WIND       PRES   REMARKS
FARGO          CLOUDY    32  30  92 S15       29.72F
JAMESTOWN      CLOUDY    34  27  75 SW10      29.67F
$$




USA.gov is the U.S. government's official web portal to all federal, state and local government web resources and services.